Location: Invercargill
(46.4000°S, 168.3500°E)
Time: 19:45:37
(UTC+12:00)

Cosmos 2322 - Pass Details

Date: 14 May 2021
Orbit: 842 x 853 km, 71.0° (Epoch: 14 June)

Event Time Altitude Azimuth Distance (km) Brightness Sun altitude
Rises 18:21:15 0° 328° (NNW) 3,414 7.7 -9.8°
Reaches altitude 10° 18:23:42 10° 325° (NW) 2,487 7.0 -10.2°
Maximum altitude 18:29:25 69° 241° (WSW) 923 4.1 -11.2°
Drops below altitude 10° 18:35:12 10° 157° (SSE) 2,520 5.8 -12.1°
Enters shadow 18:37:14 - 155° (SSE) 3,279 6.4 -12.5°
